English version Home page |
Updated on March 7, 2020 |
|
軌道要素Epoch 2000 Apr. 6.0 TT = JDT 2451640.5 T 2000 Mar. 19.85462 TT MPC q 2.0954991 (2000.0) P Q n 0.14859563 Peri. 51.16211 -0.99598368 -0.02846492 a 3.5301949 Node 127.04402 -0.00179017 -0.94159710 e 0.4064070 Incl. 6.10524 +0.08951702 -0.33553637 P 6.63 >From 195 observations 2000 Jan. 4-2006 Jan. 27, mean residual 0".82.
|
星図
|
光度変化m1 = 13.0 + 5 logΔ + 10.0 log r
|
軌道要素はM.P.E.C. 2006-B68に掲載されたものです。
|